Location: Arbon
(43.0005°N, 0.7472°E)
Time: 22:51:04
(UTC+00:00)

Altair - Pass Details

Date: 01 December 2020
Orbit: 1501 x 1682 km, 47.2° (Epoch: 26 January)

Event Time Altitude Azimuth Distance (km) Brightness Sun altitude
Rises 21:24:38 0° 260° (W) 4,715 10.5 -53.9°
Reaches altitude 10° 21:27:44 10° 263° (W) 3,712 9.8 -54.4°
Enters shadow 21:30:09 20° 266° (W) 2,961 9.2 -54.8°
Maximum altitude 21:37:04 73° 348° (NNW) 1,568 - -55.9°
Drops below altitude 10° 21:46:15 10° 73° (ENE) 3,654 - -57.4°
Sets 21:49:18 0° 76° (ENE) 4,639 - -57.9°
